sat.trackr.live / text

‹ back to catalog

STARLINK-30281

NORAD 57716 · 2023-129U

PAYLOAD ACTIVE UNKNOWN

§ Identity

Operator
Country
US
Launch date
2023-08-27
Launch site
AFETR
Launch vehicle
Mass (kg)
RCS (m²)

Purposes: comms

External: N2YO · Heavens-Above · Gunter

§ Orbital elements

Epoch: 2026-09-20T21:36:32.819040Z

Period
94.27 min
Inclination
43.0030°
Eccentricity
0.0001266
Mean motion
15.27585560 rev/d
Perigee alt
482.2 km
Apogee alt
483.9 km
Semi-major
6,861.2 km
B*
1.9342e-5
RAAN
95.7881°
Arg perigee
309.5040°
Mean anomaly
50.5700°
Rev number
17,039

§ Raw data

STARLINK-302811 57716U 23129U   26263.90037985  .00000270  00000+0  19342-4 0  99942 57716  43.0030  95.7881 0001266 309.5040  50.5700 15.27585560170393

JSON: /api/v1/satellites/57716 · /tle

For live sub-satellite position, see the globe view (requires WebGL).

§ Visibility from observer

Set your observer location to see the next 7 days of passes ≥ 10°. The values pass through the URL so the page stays shareable.

No JS? Fill the form by hand. The geolocation button needs JavaScript.